Other Surface Observations
Issued by NWS Charleston, SC

Home | Current Version | Previous Version | Text Only | Print | Product List | Glossary On
Versions: 1 2 3 4 5 6 7 8 9 10 11 12 13 14 15 16 17 18 19 20 21 22 23 24 25 26 27 28 29 30 31 32 33 34 35 36 37 38 39 40 41 42 43 44 45 46 47 48 49 50
000
SXUS52 KCHS 310112
OSOCHS

MARINE OBSERVATIONS
NATIONAL WEATHER SERVICE CHARLESTON SC
900 PM EDT SUN AUG 30 2015

...DOWNTOWN CHARLESTON AND HARBOR...

CITY           SKY/WX    TMP DP  RH WIND       PRES   REMARKS
WATERFRONT PRK   N/A     78  76  94 E16       30.06S

...LAKE MOULTRIE...

CITY           SKY/WX    TMP DP  RH WIND       PRES   REMARKS
PINOPOLIS        N/A     75  72  88 E5        30.04R

...LAKE AND SUPPLEMENTAL COASTAL OBSERVATIONS...

STATION/POSITION TIME  TEMP    WIND        PRES    WAVE   SWELL
                       AIR SEA DIR/SP/G            HT/PER HT/PER/DIR
                 (UTC) (F)     (DEG/KT/KT) (MB)    (FT/S) (FT/S/D)
FORT PULASKI     NOT AVBL
SAPELO ISLAND    0000   77     130/  7     1017.0S
UPR LAKE MARION  NOT AVBL
WINYAH BAY       2345   75     110/  6     1018.0
LAKE MURRAY      0000   72      50/  3/  7 1019.0S
ACE BASIN NERRS  NOT AVBL


...C-MAN AND BUOY OBSERVATIONS...

STATION/POSITION TIME  TEMP    WIND        PRES    WAVE   SWELL
                       AIR SEA DIR/SP/G            HT/PER HT/PER/DIR
                 (UTC) (F)     (DEG/KT/KT) (MB)    (FT/S) (FT/S/D)
BUOY 41004       0050   78 84  100/ 17/ 19 1018.7R   5/11   3/11
BUOY 41008       0050   79 84  150/ 19/ 23 1016.7F   5/ 5   3/110/10
FOLLY BEACH CMAN 0100   79     110/ 19/ 22 1018.6F
CAPERS NS BUOY   0008   78     110/ 17/ 23 1019.3R
FRIPP NS BUOY    0000   79     100/ 19/ 23 1017.3F
5E ST. MARYS GA  0021      86                N/A     6/11   2/100/11


STATION/POSITION TIME  TEMP    WIND        PRES    WAVE   SWELL
                       AIR SEA DIR/SP/G            HT/PER HT/PER/DIR
                 (UTC) (F)     (DEG/KT/KT) (MB)    (FT/S) (FT/S/D)
FRYING PAN BUOY  0050   79 82  170/  4/  6 1020.9R   3/10   3/130/10
BUOY 41025       0050   78 80   CALM  /  2 1020.5R   3/11   3/110/11
CAPE LOOKOUT NC  0100   78     250/  3/  3 1020.5R
BUOY 41002       0050   84 84  180/  8/ 10 1020.5R   5/ 9   5/140/ 9
BUOY 41010       0020   84 86  140/ 14/ 17 1017.4R
ST AUGUSTINE FL  0100   79 84  100/ 12/ 13 1017.1R

$$



USA.gov is the U.S. government's official web portal to all federal, state and local government web resources and services.